TimeEST,TemperatureF,Dew PointF,Humidity,Sea Level PressureIn,VisibilityMPH,Wind Direction,Wind SpeedMPH,Gust SpeedMPH,PrecipitationIn,Events,Conditions,WindDirDegrees,DateUTC
12:54 AM,37.9,26.1,62,29.91,10.0,East,6.9,-,N/A,,Clear,90,2013-03-06 05:54:00
1:54 AM,37.0,27.0,67,29.88,10.0,ENE,8.1,18.4,N/A,,Clear,70,2013-03-06 06:54:00
2:54 AM,37.0,28.9,73,29.85,10.0,East,9.2,23.0,N/A,,Clear,80,2013-03-06 07:54:00
3:54 AM,37.0,30.0,76,29.82,10.0,ENE,12.7,17.3,N/A,,Scattered Clouds,70,2013-03-06 08:54:00
4:44 AM,37.4,30.2,75,29.79,10.0,East,9.2,28.8,N/A,,Overcast,90,2013-03-06 09:44:00
4:54 AM,39.0,30.0,70,29.81,10.0,East,15.0,29.9,N/A,,Overcast,90,2013-03-06 09:54:00
5:54 AM,39.0,28.9,67,29.80,10.0,East,16.1,25.3,N/A,,Overcast,80,2013-03-06 10:54:00
6:54 AM,39.9,28.9,65,29.80,10.0,ENE,16.1,27.6,N/A,,Overcast,70,2013-03-06 11:54:00
7:54 AM,39.0,30.9,73,29.81,10.0,East,17.3,35.7,0.00,Rain,Light Rain,80,2013-03-06 12:54:00
8:54 AM,39.9,30.0,68,29.81,10.0,NE,13.8,27.6,0.00,,Overcast,50,2013-03-06 13:54:00
9:07 AM,39.2,28.4,65,29.79,10.0,ENE,13.8,24.2,N/A,,Overcast,60,2013-03-06 14:07:00
9:25 AM,39.2,30.2,70,29.79,10.0,ENE,13.8,26.5,N/A,,Overcast,60,2013-03-06 14:25:00
9:54 AM,39.9,30.0,68,29.82,10.0,ENE,20.7,31.1,N/A,,Overcast,60,2013-03-06 14:54:00
10:54 AM,39.9,30.9,70,29.82,10.0,NE,12.7,21.9,0.00,Rain,Light Rain,50,2013-03-06 15:54:00
11:40 AM,41.0,30.2,65,29.81,10.0,NE,16.1,21.9,0.00,,Overcast,50,2013-03-06 16:40:00
11:54 AM,41.0,30.0,65,29.83,10.0,NE,15.0,21.9,0.00,,Overcast,50,2013-03-06 16:54:00
12:26 PM,37.4,33.8,87,29.81,8.0,NE,16.1,28.8,0.00,Rain,Light Rain,40,2013-03-06 17:26:00
12:54 PM,37.9,34.0,86,29.83,7.0,NE,13.8,27.6,0.00,Rain,Light Rain,40,2013-03-06 17:54:00
1:04 PM,39.2,33.8,81,29.81,8.0,NE,10.4,28.8,0.01,Rain,Light Rain,40,2013-03-06 18:04:00
1:54 PM,39.0,34.0,82,29.83,8.0,NE,19.6,28.8,0.02,Rain,Light Rain,40,2013-03-06 18:54:00
2:54 PM,39.9,34.0,79,29.84,10.0,NE,10.4,27.6,0.01,Rain,Light Rain,50,2013-03-06 19:54:00
3:54 PM,39.9,34.0,79,29.87,10.0,NNE,17.3,25.3,0.03,Rain,Light Rain,30,2013-03-06 20:54:00
4:54 PM,39.9,34.0,79,29.91,10.0,NE,17.3,25.3,0.02,Rain,Light Rain,50,2013-03-06 21:54:00
5:54 PM,39.9,30.9,70,29.94,10.0,NNE,11.5,25.3,0.01,Rain,Light Rain,30,2013-03-06 22:54:00
6:06 PM,41.0,30.2,65,29.91,10.0,NNE,15.0,26.5,0.00,,Overcast,20,2013-03-06 23:06:00
6:54 PM,41.0,28.0,60,29.95,10.0,NNE,13.8,32.2,0.00,,Overcast,20,2013-03-06 23:54:00
7:54 PM,41.0,28.0,60,29.97,10.0,NNE,17.3,24.2,N/A,,Overcast,30,2013-03-07 00:54:00
8:54 PM,41.0,27.0,57,29.97,10.0,North,13.8,21.9,N/A,,Overcast,10,2013-03-07 01:54:00
9:54 PM,39.9,26.1,58,29.99,10.0,NNE,13.8,23.0,N/A,,Overcast,20,2013-03-07 02:54:00
10:54 PM,39.0,25.0,57,30.01,10.0,NNE,9.2,19.6,N/A,,Mostly Cloudy,30,2013-03-07 03:54:00
11:54 PM,39.0,24.1,55,30.01,10.0,NNE,9.2,-,N/A,,Overcast,20,2013-03-07 04:54:00